Location: Unspecified
(52.4292°N, 19.3359°E)
Time: 08:21:20
(UTC+01:00)

Envisat - Visible Passes

Search period start: 04 March 2024 00:00
Search period end: 14 March 2024 00:00
Orbit: 762 x 764 km, 98.3° (Epoch: 03 March)

Date Brightness Start Highest point End Pass type
(mag) Time Alt. Az. Time Alt. Az. Time Alt. Az.
04 Mar 3.8 02:48:52 10° NNE 02:53:39 45° E 02:53:39 45° E visible
04 Mar 3.8 04:28:08 10° N 04:32:37 33° WNW 04:33:50 29° W visible
05 Mar 4.9 02:12:05 10° NE 02:16:03 24° E 02:16:03 24° E visible
05 Mar 3.0 03:50:31 10° N 03:55:32 61° WNW 03:56:14 55° WSW visible
05 Mar 4.8 05:31:14 10° NNW 05:33:33 13° NW 05:35:52 10° WNW visible
06 Mar 5.7 01:36:24 10° ENE 01:38:20 12° E 01:38:28 12° E visible
06 Mar 3.1 03:13:09 10° NNE 03:18:15 71° ESE 03:18:38 68° SE visible
06 Mar 4.2 04:52:53 10° N 04:56:46 23° WNW 04:58:48 18° W visible
07 Mar 4.2 02:36:05 10° NNE 02:40:46 36° E 02:41:03 36° ESE visible
07 Mar 3.5 04:15:05 10° N 04:19:48 40° WNW 04:21:13 33° W visible
08 Mar 5.2 01:59:30 10° NE 02:03:05 19° E 02:03:27 19° E visible
08 Mar 2.9 03:37:33 10° NNE 03:42:39 76° WNW 03:43:38 57° SW visible
08 Mar 4.7 05:17:52 10° NNW 05:20:50 16° NW 05:23:48 10° W visible
09 Mar 3.4 03:00:17 10° NNE 03:05:18 57° E 03:06:02 51° SE visible
09 Mar 4.0 04:39:45 10° N 04:43:59 27° WNW 04:46:12 20° W visible
10 Mar 4.5 02:23:20 10° NNE 02:27:46 29° E 02:28:26 28° ESE visible
10 Mar 3.2 04:02:04 10° N 04:06:58 49° WNW 04:08:36 36° WSW visible
11 Mar 5.4 01:47:05 10° NE 01:50:00 15° E 01:50:50 15° E visible
11 Mar 2.9 03:24:37 10° NNE 03:29:45 87° ESE 03:31:01 52° SSW visible
11 Mar 4.5 05:04:36 10° N 05:08:06 19° NW 05:11:11 12° W visible
12 Mar 3.9 02:47:26 10° NNE 02:52:20 45° E 02:53:25 39° SE visible
12 Mar 3.8 04:26:41 10° N 04:31:11 33° WNW 04:33:35 22° WSW visible
13 Mar 4.9 02:10:39 10° NE 02:14:43 23° E 02:15:49 22° ESE visible
13 Mar 3.0 03:49:05 10° N 03:54:06 61° WNW 03:55:59 37° SW visible
